SB KEPS @ AMSAT $ORB13073.N 2Line Orbital Elements 13073.AMSAT
HR AMSAT ORBITAL ELEMENTS FOR AMATEUR SATELLITES IN NASA FORMAT FROM WA5QGD FORT WORTH,TX March 14, 2013 BID: ORB13073.N
DECODE 2-LINE ELSETS WITH THE FOLLOWING KEY: 1 AAAAAU 00 0 0 BBBBB.BBBBBBBB .CCCCCCCC 00000-0 00000-0 0 DDDZ 2 AAAAA EEE.EEEE FFF.FFFF GGGGGGG HHH.HHHH III.IIII JJ.JJJJJJJJKKKKKZ KEY: A-CATALOGNUM B-EPOCHTIME C-DECAY D-ELSETNUM E-INCLINATION F-RAAN G-ECCENTRICITY H-ARGPERIGEE I-MNANOM J-MNMOTION K-ORBITNUM Z-CHECKSUM
TO ALL RADIO AMATEURS BT
AO-07 1 07530U 74089B 13073.05378498 -.00000027 00000-0 10038-3 0 6308 2 07530 101.4259 066.0360 0012330 113.6777 276.8531 12.53594710753869 FO-29 1 24278U 96046B 13072.44759352 -.00000044 00000-0 -99980-5 0 711 2 24278 098.5661 143.7707 0351142 052.3300 004.7672 13.52997488818366 SO-33 1 25509U 98061B 13072.84074051 .00000524 00000-0 93863-4 0 4525 2 25509 031.4307 247.4236 0351311 043.2376 097.1652 14.28971196751245 RS-22 1 27939U 03042A 13073.34299022 .00000492 00000-0 10150-3 0 2396 2 27939 097.7992 266.1429 0014179 125.5743 234.6755 14.64346562505412 VO-52 1 28650U 05017B 13072.51479765 .00001417 00000-0 17706-3 0 3677 2 28650 097.5754 096.0158 0025124 232.8389 289.2825 14.83621852424891 HO-68 1 36122U 09072B 13073.26914444 -.00000044 00000-0 00000 0 0 3688 2 36122 100.3187 132.6785 0007308 209.6459 150.4250 13.16302568155925 UO-11 1 14781U 84021B 13072.22553428 .00000604 00000-0 85147-4 0 1249 2 14781 097.9136 134.8650 0008045 233.0917 126.9559 14.80777742559730 AO-16 1 20439U 90005D 13072.85256330 .00000129 00000-0 63635-4 0 6971 2 20439 098.4636 015.1334 0012087 083.1519 310.6382 14.32145684208593 LO-19 1 20442U 90005G 13072.83519411 .00000151 00000-0 71410-4 0 6295 2 20442 098.4322 017.2095 0012944 074.5641 319.4537 14.32358564208781 AO-27 1 22825U 93061C 13072.87070137 .00000120 00000-0 64061-4 0 3341 2 22825 098.6098 017.9490 0008172 200.6887 192.7356 14.29539423 15012 IO-26 1 22826U 93061D 13071.91719819 .00000139 00000-0 70937-4 0 912 2 22826 098.6039 017.3137 0008756 197.2070 235.5738 14.29820524 15007 GO-32 1 25397U 98043D 13073.07755541 .00000070 00000-0 49252-4 0 217 2 25397 098.4043 045.0286 0001356 161.5637 260.1333 14.23326208762414 NO-44 1 26931U 01043C 13072.49981237 .00000074 00000-0 60986-4 0 2790 2 26931 067.0516 146.1743 0006069 286.4115 166.0986 14.29895416597749 SO-50 1 27607U 02058C 13072.80313961 .00001008 00000-0 17456-3 0 155 2 27607 064.5573 194.4882 0057241 191.3890 311.4868 14.72802716549669 CO-55 1 27844U 03031E 13072.47171141 .00000230 00000-0 12568-3 0 6000 2 27844 098.7034 082.9328 0010362 160.2518 349.1375 14.21170508503138 CO-57 1 27848U 03031J 13073.06482091 .00000180 00000-0 10345-3 0 5474 2 27848 098.7121 082.9805 0010233 163.9505 228.9811 14.20902692503159 AO-51 1 28375U 04025K 13072.84529811 .00000272 00000-0 94337-4 0 5073 2 28375 098.1907 032.1898 0082296 304.9535 087.3918 14.41079609457607 CP3 1 31129U 07012N 13072.52159657 .00001266 00000-0 29439-3 0 4124 2 31129 097.8945 070.5941 0100229 006.0532 139.3496 14.53500991313094 CO-65 1 32785U 08021C 13072.20468203 .00001421 00000-0 17839-3 0 5764 2 32785 097.7620 132.4386 0013146 259.0882 133.6311 14.83631510263645 PRISM 1 33493U 09002B 13073.32147351 .00003117 00000-0 36747-3 0 6194 2 33493 098.2040 227.2304 0019012 139.0603 221.2105 14.85404260223837 SOHLA-1 1 33496U 09002E 13072.51261575 .00000474 00000-0 87010-4 0 9929 2 33496 098.1232 188.8513 0005358 260.2223 159.8233 14.70205237221810 SO-67 1 35870U 09049F 13073.33370088 .00004785 00000-0 18810-3 0 8760 2 35870 097.2024 105.4890 0001092 357.1912 132.7738 15.26130044193781 TISAT-1 1 36799U 10035E 13073.32887082 .00001670 00000-0 21229-3 0 8908 2 36799 098.0381 157.4725 0014947 021.4028 338.7814 14.82931614144516 STUDSAT 1 36801U 10035G 13072.20774874 .00006236 00000-0 69920-3 0 5991 2 36801 098.0470 158.6744 0011551 007.7679 044.5758 14.87139752144461 FO-69 1 37227U 0 13058.47095845 .00000509 00000-0 79251-4 0 00791 2 37227 071.9702 108.5053 0016475 214.8087 145.2122 14.77380366012706 FO-70 1 37380U 0 13057.30123492 -.00000046 00000-0 14930-5 0 00760 2 37380 071.9749 111.9690 0018455 208.9506 151.0634 14.77121324012601 ALMASAT-1 1 38078U 12006B 13073.24920683 .00021826 00000-0 54735-3 0 855 2 38078 069.4843 060.4965 0717897 268.0225 083.8590 14.20035071 55743 XATCOBEO 1 38082U 12006F 13073.24748125 .00047865 34675-5 98986-3 0 9934 2 38082 069.4850 044.7888 0631012 259.3454 093.6066 14.42682288 56173 NOAA-10 1 16969U 86073A 13072.54046013 .00000056 00000-0 40375-4 0 2752 2 16969 098.5551 102.4218 0013003 161.6571 000.7001 14.27619436378298 NOAA-11 1 19531U 88089A 13072.27959773 .00000066 00000-0 56175-4 0 2784 2 19531 098.7131 157.5628 0011765 170.8712 221.7962 14.15004188262562 NOAA-12 1 21263U 91032A 13072.46001888 .00000021 00000-0 27637-4 0 7526 2 21263 098.7058 098.5674 0014807 136.3607 358.5649 14.25550650134919 MET-3/5 1 21655U 91056A 13072.15099216 -.00000319 00000-0 -85977-3 0 6414 2 21655 082.5578 322.1590 0013438 014.9914 345.1604 13.17048938 37293 MET-2/21 1 22782U 93055A 13072.83403042 .00000088 00000-0 65447-4 0 6869 2 22782 082.5524 178.5677 0023855 116.6387 030.5263 13.83702446986454 OKEAN-4 1 23317U 94066A 13073.14710450 .00000742 00000-0 85357-4 0 1635 2 23317 082.5393 138.7365 0021926 176.2573 244.2269 14.84290070994840 NOAA-14 1 23455U 94089A 13072.47635843 -.00000039 00000-0 24369-5 0 2379 2 23455 098.8048 158.3559 0008466 268.1677 197.0487 14.13896967938847 NOAA-15 1 25338U 98030A 13072.47938307 .00000172 00000-0 91963-4 0 6545 2 25338 098.7196 063.2367 0011378 051.3377 116.8485 14.25185938771202 RESURS 1 25394U 98043A 13072.48714940 .00000024 00000-0 27993-4 0 3261 2 25394 098.3531 052.9619 0002164 139.6730 006.6544 14.24322524762737 FENGYUN1 1 25730U 99025A 13072.49479391 .00002015 00000-0 11586-2 0 8261 2 25730 098.8710 033.2337 0022784 318.9332 178.4347 14.10270686712554 OKEAN-0 1 25860U 99039A 13072.83483271 .00000614 00000-0 99858-4 0 8915 2 25860 097.9796 036.6306 0002154 102.2892 289.8893 14.74501376734302 NOAA-16 1 26536U 00055A 13072.46183003 .00000064 00000-0 59066-4 0 1329 2 26536 099.0544 124.2276 0011002 050.7107 064.4128 14.12848507643056 NOAA-17 1 27453U 02032A 13072.49636388 .00000014 00000-0 23553-4 0 569 2 27453 098.3180 091.6332 0012843 088.7224 075.9029 14.24546258557094 NOAA-18 1 28654U 05018A 13072.48943331 .00000220 00000-0 14584-3 0 5374 2 28654 099.0897 039.3864 0015332 116.4786 031.2840 14.11781188402553 NOAA-19 1 33591U 09005A 13072.48439671 .00000273 00000-0 17515-3 0 7251 2 33591 098.8961 015.3449 0013699 344.7747 149.7720 14.11468095210994 HUBBLE 1 20580U 90037B 13072.68836264 .00002006 00000-0 13193-3 0 1945 2 20580 028.4693 178.7454 0003556 052.1934 094.0182 15.03356816 55314 ISS 1 25544U 98067A 13073.78002109 .00012165 00000-0 19958-3 0 4064 2 25544 051.6469 217.1035 0012446 015.8975 140.3716 15.52795476820041 CO-58 1 28895U 05043F 13073.12143681 .00000520 00000-0 11488-3 0 4261 2 28895 097.8827 293.0301 0017945 026.0122 120.0013 14.60992127393061 FALCON 1 30776U 07006E 13073.14428630 .00006103 00000-0 37263-3 0 5695 2 30776 035.4314 065.1575 0002740 225.8115 204.6996 15.09750738331043 MAST 1 31126U 07012K 13072.87039606 .00000771 00000-0 18141-3 0 7053 2 31126 097.8794 074.2541 0092767 350.8297 077.3777 14.54462579313469 CAPE1 1 31130U 07012P 13072.51846468 .00001177 00000-0 27534-3 0 7160 2 31130 097.8949 070.2450 0100680 006.8964 138.4806 14.53339454312885 COMPASS 1 32787U 08021E 13072.21119906 .00002391 00000-0 28563-3 0 5673 2 32787 097.7633 133.2405 0013629 255.7545 136.7584 14.85064596263728 AAUSAT2 1 32788U 08021F 13072.18129463 .00002600 00000-0 30698-3 0 5573 2 32788 097.7638 133.7650 0013137 256.0675 137.5250 14.85488504263754 DO-64 1 32789U 08021G 13072.78331747 .00004400 00000-0 48753-3 0 5818 2 32789 097.7780 137.5927 0012960 247.7280 251.6820 14.87752749263932 CO-66 1 32791U 08021J 13072.18972953 .00001842 00000-0 22567-3 0 5536 2 32791 097.7635 132.6999 0014094 257.0512 136.2702 14.84287448263631 RS-30 1 32953U 08025A 13073.24630996 .00000010 00000-0 00000 0 0 6762 2 32953 082.5022 127.2364 0020183 080.9862 279.3502 12.43031903218112 METEOR-M 1 35865U 09049A 13073.15730419 -.00000011 00000-0 14642-4 0 2844 2 35865 098.6148 127.8631 0002800 010.3752 349.7479 14.21881041180968 RS-38 1 35869U 09049E 13073.27695429 .00000013 00000-0 25089-4 0 2592 2 35869 098.6091 127.9202 0004798 001.0259 359.0924 14.22115846181000 JUGNU 1 37839U 11058B 13071.65016808 .00000437 00000-0 91690-4 0 3482 2 37839 019.9607 171.7049 0019095 300.8333 200.6793 14.12130761 73235 SRMSAT 1 37841U 11058D 13072.56234608 .00000393 00000-0 71864-4 0 3512 2 37841 019.9712 176.3447 0011803 268.1520 212.7714 14.10205620 73255 RAX-2 1 37853U 11061D 13072.50279610 .00003955 00000-0 30870-3 0 4480 2 37853 101.7145 241.8757 0238835 301.5041 094.5431 14.82482685 74267 AUBIESAT 1 37854U 11061E 13072.43822903 .00004095 00000-0 31329-3 0 4466 2 37854 101.7183 242.4588 0239058 300.5527 110.6978 14.83093891 74269 HRBE 1 37855U 11061F 13072.48613459 .00004315 00000-0 33110-3 0 4438 2 37855 101.7183 242.3562 0239825 300.7545 090.3738 14.82816875 74267 RS-39 1 38051U 11062C 13073.23899513 .00012650 00000-0 44226-3 0 2551 2 38051 051.6381 307.8674 0011049 280.3519 183.1352 15.29845245 63233 E-STAR 1 38079U 12006C 13073.03407957 .00041844 33477-5 89328-3 0 9673 2 38079 069.4818 049.0829 0658481 261.8680 171.2485 14.36257080 56038 GOLIAT 1 38085U 12006J 13073.24998560 .00035190 32635-5 76119-3 0 8943 2 38085 069.4882 050.0855 0665259 262.2625 090.2510 14.34634827 56026 HORYU-2 1 38340U 12025D 13073.88190891 .00001273 00000-0 21718-3 0 4198 2 38340 098.2085 020.7860 0012500 187.1755 172.9252 14.70673334 44258 RS-40 1 38736U 12041D 13073.33446085 .00000010 00000-0 00000 0 0 2119 2 38736 082.4768 214.2598 0020990 166.3240 193.8413 12.43229797 28462 PROITERES 1 38756U 12047B 13073.29272037 .00000527 00000-0 88050-4 0 5949 2 38756 098.2609 148.5736 0013616 052.4444 307.8000 14.74101682 27415 RAIKO 1 38852U 98067CN 13072.50580640 .00062666 00000-0 66692-3 0 1649 2 38852 051.6414 217.1570 0014508 358.6803 001.4151 15.63276120 24835 FITSAT 1 1 38853U 98067CP 13072.83061546 .00084226 00000-0 79834-3 0 1654 2 38853 051.6428 214.0960 0011361 007.6420 352.4747 15.66123243 24953 TechEdSat 1 38854U 98067CQ 13072.84605457 .00172213 00000-0 11435-2 0 1871 2 38854 051.6385 210.4033 0010797 359.2001 000.8979 15.74337161 25003 F 1 1 38855U 98067CR 13072.81881882 .00149904 00000-0 10465-2 0 1892 2 38855 051.6379 210.9660 0010735 359.9206 000.1789 15.73246956 24881 WeWish 1 38856U 98067CS 13069.98095549 .16701328 12537-4 10063-2 0 2487 2 38856 051.6166 215.0521 0008325 316.0438 044.8765 16.41348316 24586 /EX
participants (1)
-
Ray Hoad